,

(GMT )
Al Udeid

Weather History for KQIR - April, 2013

Change the Weather History Date:

Monday, April 15, 2013

  Actual Average Record
Temperature  
Mean Temperature 87 °F -  
Max Temperature 98 °F - - ()
Min Temperature 76 °F - - ()
Cooling Degree Days 22    
Growing Degree Days 37 (Base 50)    
Moisture  
Dew Point 49 °F    
Average Humidity 30    
Maximum Humidity 58    
Minimum Humidity 13    
Precipitation  
Precipitation 0.00 in - - ()
Sea Level Pressure  
Sea Level Pressure 29.83 in    
Wind  
Wind Speed 10 mph ()    
Max Wind Speed 20 mph    
Max Gust Speed 21 mph    
Visibility 6.1 miles    
Events      
Averages and records for this station are not official NWS values.
T = Trace of Precipitation, MM = Missing Value Source: Averaged Metar Reports

Daily Weather History Graph

Daily Weather History Graph

Search for Another Location

Airport or City:

Trip Planner

Search our weather history database for the weather conditions in past years. The results will help you decide how hot, cold, wet, or windy it might be!

Date:

Astronomy

Apr. 15, 2013 Rise Set
Actual Time 5:12 AM +03 5:57 PM +03
Civil Twilight 4:49 AM +03 6:20 PM +03
Nautical Twilight 4:21 AM +03 6:48 PM +03
Astronomical Twilight 3:53 AM +03 7:16 PM +03
Moon 8:36 AM +03 (4/15) 10:21 PM +03 (4/15)
Length of Visible Light 13h 31m
Length of Day
12h 44m
Waxing Crescent, 22% of the Moon is Illuminated
Apr 15
Waxing Crescent
Apr 18
First Quarter
Apr 25
Full
May 2
Last Quarter
May 10
New

Hourly Weather History & Observations

Time (+03) Temp. Heat Index Dew Point Humidity Pressure Visibility Wind Dir Wind Speed Gust Speed Precip Events Conditions
12:55 AM 79.0 °F - 60.4 °F 53% 29.82 in 6.2 mi NNW 9.2 mph - N/A   Clear
1:55 AM 78.3 °F - 54.5 °F 44% 29.81 in 6.2 mi NW 5.8 mph - N/A   Clear
2:55 AM 76.1 °F - 55.4 °F 49% 29.81 in 6.2 mi NNW 5.8 mph - N/A   Clear
3:55 AM 77.9 °F - 59.4 °F 53% 29.82 in 6.2 mi North 10.4 mph - N/A   Clear
4:55 AM 77.4 °F - 59.9 °F 55% 29.83 in 6.2 mi North 10.4 mph - N/A   Clear
5:55 AM 76.8 °F - 60.8 °F 58% 29.84 in 6.2 mi North 8.1 mph - N/A   Clear
6:55 AM 79.7 °F - 61.2 °F 53% 29.86 in 6.2 mi North 12.7 mph - N/A   Clear
7:55 AM 84.2 °F 83.5 °F 57.4 °F 40% 29.87 in 5.0 mi North 13.8 mph - N/A   Haze
8:55 AM 88.5 °F - 52.9 °F 29% 29.88 in 5.6 mi North 17.3 mph - N/A   Haze
9:55 AM 92.8 °F - 49.6 °F 23% 29.87 in 6.2 mi North 19.6 mph - N/A   Clear
10:55 AM 95.9 °F - 46.4 °F 18% 29.86 in 6.2 mi NNE 15.0 mph - N/A   Clear
11:55 AM 97.7 °F - 39.7 °F 13% 29.84 in 6.2 mi NNE 9.2 mph 20.7 mph N/A   Clear
12:55 PM 98.1 °F - 45.3 °F 16% 29.82 in 6.2 mi NNE 11.5 mph - N/A   Clear
1:55 PM 97.9 °F - 43.2 °F 15% 29.81 in 6.2 mi NE 15.0 mph - N/A   Clear
2:55 PM 96.6 °F - 40.6 °F 14% 29.80 in 6.2 mi NE 15.0 mph - N/A   Clear
3:55 PM 95.2 °F - 43.0 °F 16% 29.80 in 6.2 mi NE 17.3 mph - N/A   Clear
4:55 PM 93.0 °F - 44.2 °F 19% 29.80 in 6.2 mi NE 12.7 mph - N/A   Clear
5:55 PM 90.0 °F - 44.4 °F 21% 29.81 in 6.2 mi NE 11.5 mph - N/A   Clear
6:55 PM 88.0 °F - 46.4 °F 24% 29.83 in 6.2 mi NNE 11.5 mph - N/A   Clear
7:55 PM 86.4 °F - 47.1 °F 26% 29.84 in 6.2 mi North 10.4 mph - N/A   Clear
8:55 PM 83.7 °F - 46.9 °F 28% 29.86 in 6.2 mi NNE 8.1 mph - N/A   Clear
9:55 PM 83.1 °F - 38.7 °F 21% 29.85 in 6.2 mi NNE 10.4 mph - N/A   Clear
10:55 PM 81.5 °F - 37.2 °F 20% 29.84 in 6.2 mi North 10.4 mph - N/A   Clear
11:55 PM 79.9 °F - 39.0 °F 23% 29.82 in 6.2 mi North 6.9 mph - N/A   Clear